Página principal
METAR-TAF:

METAR-TAF

Aeroportos :

Ardabil, Irão

latitude: 38-19-35N, longitude: 048-25-28E, altura: 1315 m

Observação actual do tempo

O boletim foi feito há 1 hora e 9 minutos, às 12:00 UTC
Vento 14 kt de este
Temperatura 17°C
Humidade 82%
Pressão 1022 hPa
Visibilidade 10 km ou mais
Poucas nuvensa uma altura de 3500 ft, Cumulus congestus.
Poucas nuvensa uma altura de 4000 ft, Cumulonimbus.
Poucas nuvensa uma altura de 8000 ft

METAR: OITL 241200Z 08014KT 9999 FEW035TCU FEW040CB FEW080 17/14 Q1022

Hora: 16:39 (13:09 UTC)


TAF: em falta

Observações e previsões do tempo de mais de 4000 aeroportos (mensagens METAR e TAF).

As estações disponíveis são os pontos amarelos e vermelhos sobre o mapa.

Mova o rato sobre o mapa para ver o nome da estação.

Depois clique no ponto para visualizar as observações e previsões meteorológicas.

Para alterar o mapa : clique nos botões verdes com uma cruz preta para aumentar o zoom; no botão verde com uma pitada de zoom; ou nas setas verdes para mapas adjacentes.


METAR-TAF: